East Midlands Airport

Airport
ICAO code: 
EGNX
IATA Code: 
EMA
Summary
ICAO Region: 
EUR
Territory: 
Location: 
Castle Donington, Leicestershire, England
Serving: 
Nottingham
Elevation: 
306 ft
Coordinates: 
Aerial View: 
52° 49' 50.577" N, 1° 19' 54.26" W
Metar
Observation
EGNX 201150Z 33008KT 9999 SCT044 03/M04 Q1038
Station
East Midlands
Date/Time
2022-01-20 11:50:00
Wind direction
330°
Wind speed
08 kts
Lowest cloud amount
scattered clouds
Temperature
3°C
Dew point
-4°C
Humidity
60%
QNH
1038 hPa
Weather condition
n/a

Description

International airport serving the cities of Nottingham, Leicester, Derby and the East Midlands region of England generally.

Climatology

Temperate Marine climate/Oceanic climate (Köppen climate classification Cfb). Moderately cool summer and comparatively warm winter with a temperature range of only 14°C. Prevailing south-westerly winds from the Atlantic Ocean.

Runways

Designator Length Width Surface Rops
9/27 2893 46 ASP Yes/Yes

SKYbrary Partners:

Safety knowledge contributed by: